sat.trackr.live / text

‹ back to catalog

STARLINK-5923

NORAD 56489 · 2023-064AT

PAYLOAD ACTIVE UNKNOWN

§ Identity

Operator
Country
US
Launch date
2023-05-10
Launch site
AFWTR
Launch vehicle
Mass (kg)
RCS (m²)

Purposes: comms

External: N2YO · Heavens-Above · Gunter

§ Orbital elements

Epoch: 2026-09-20T21:46:46.164864Z

Period
96.11 min
Inclination
70.0000°
Eccentricity
0.0003480
Mean motion
14.98328726 rev/d
Perigee alt
569.6 km
Apogee alt
574.5 km
Semi-major
6,950.2 km
B*
1.3143e-5
RAAN
332.2694°
Arg perigee
270.9415°
Mean anomaly
89.1345°
Rev number
18,547

§ Raw data

STARLINK-59231 56489U 23064AT  26263.90747876  .00000064  00000+0  13143-4 0  99992 56489  70.0000 332.2694 0003480 270.9415  89.1345 14.98328726185478

JSON: /api/v1/satellites/56489 · /tle

For live sub-satellite position, see the globe view (requires WebGL).

§ Visibility from observer

Set your observer location to see the next 7 days of passes ≥ 10°. The values pass through the URL so the page stays shareable.

No JS? Fill the form by hand. The geolocation button needs JavaScript.